Powrót do katalogu

STARLINK-32588

AktywnyŁącznośćVLEO
NORAD 61866·PAYLOAD·🇺🇸 United States

Wystrzelony Nov 7, 2024 z Cape Canaveral Space Force Station

Loading…

Następne Przeloty (najbliższe 24 godziny)

TLE

ŚwieżeSource: CelesTrak SupGP

Epoka: Sep 14, 2026, 21:39 UTC

1 61866C 24202X   26257.90256944  .00039284  00000+0  14231-2 0  2573
2 61866  43.0015 249.6832 0001510 264.0741  43.0835 15.27552548    15

Śledź STARLINK-32588 w czasie rzeczywistym z AllMySat

Download on the App Store